Dumas, Arkansas, United States (71639)
Lat: 33.89N, Lon: 91.49W
Wx Zone: ARZ065
Local Info
Past Weather Observations for Saturday, November 22, 2014

NOTE: This archive is for the closest National Weather Service station to Dumas. Information may differ from the station used for current weather conditions.

Click here for Long-term Archive

Time Weather Temperature Dewpoint Humidity Pressure Winds Precip Visibility
23:53
Mostly Cloudy
59°F / 15°C 52°F / 11°C 77% 29.89 in
(1012 mb)
ESE 6.9 mph
(ESE 11 kph)
- 10SM
22:53
Overcast
59°F / 15°C 52°F / 11°C 77% 29.89 in
(1012 mb)
E 4.6 mph
(E 7 kph)
- 10SM
21:53
Partly Cloudy
59°F / 15°C 52°F / 11°C 77% 29.92 in
(1013 mb)
ESE 5.8 mph
(ESE 9 kph)
- 10SM
20:53
Clear
61°F / 16°C 52°F / 11°C 72% 29.95 in
(1014 mb)
E 4.6 mph
(E 7 kph)
- 10SM
19:53
Overcast
61°F / 16°C 54°F / 12°C 77% 29.98 in
(1015 mb)
E 4.6 mph
(E 7 kph)
- 10SM
18:53
Mostly Cloudy
63°F / 17°C 54°F / 12°C 73% 29.98 in
(1015 mb)
Calm - 10SM
17:53
Mostly Cloudy
63°F / 17°C 55°F / 13°C 77% 30.01 in
(1016 mb)
Calm - 10SM
16:53
Clear
64°F / 18°C 54°F / 12°C 68% 30.01 in
(1016 mb)
SSE 5.8 mph
(SSE 9 kph)
- 10SM
15:53
Clear
68°F / 20°C 54°F / 12°C 60% 30.01 in
(1016 mb)
SE 8.1 mph
(SE 13 kph)
- 10SM
14:53
Clear
70°F / 21°C 54°F / 12°C 57% 30.04 in
(1017 mb)
SSE 9.2 mph
(SSE 15 kph)
- 10SM
13:53
Clear
70°F / 21°C 54°F / 12°C 57% 30.04 in
(1017 mb)
S 10.4 mph
(S 17 kph)
- 10SM
12:53
Clear
70°F / 21°C 52°F / 11°C 53% 30.09 in
(1019 mb)
Variable 5.8 mph
(Variable 9 kph)
- 10SM
11:53
Clear
66°F / 19°C 52°F / 11°C 60% 30.12 in
(1020 mb)
SSE 10.4 mph
(SSE 17 kph)
0.00 in
(0.00 mm)
10SM
10:53
Partly Cloudy
61°F / 16°C 48°F / 9°C 63% 30.18 in
(1022 mb)
SSE 11.5 mph
(SSE 19 kph)
- 10SM
09:53
Overcast
59°F / 15°C 46°F / 8°C 63% 30.21 in
(1023 mb)
SE 6.9 mph
(SE 11 kph)
- 10SM
08:53
Mostly Cloudy
57°F / 14°C 48°F / 9°C 72% 30.21 in
(1023 mb)
SE 4.6 mph
(SE 7 kph)
- 10SM
07:53
Partly Cloudy
55°F / 13°C 48°F / 9°C 77% 30.21 in
(1023 mb)
SE 5.8 mph
(SE 9 kph)
- 10SM
06:53
Clear
55°F / 13°C 48°F / 9°C 77% 30.21 in
(1023 mb)
SSE 8.1 mph
(SSE 13 kph)
- 10SM
05:53
Mostly Cloudy
55°F / 13°C 48°F / 9°C 77% 30.21 in
(1023 mb)
SSE 5.8 mph
(SSE 9 kph)
- 10SM
04:53
Overcast
55°F / 13°C 48°F / 9°C 77% 30.24 in
(1024 mb)
S 4.6 mph
(S 7 kph)
- 10SM
03:53
Mostly Cloudy
55°F / 13°C 48°F / 9°C 77% 30.24 in
(1024 mb)
SSE 5.8 mph
(SSE 9 kph)
- 10SM
02:53
Overcast
57°F / 14°C 48°F / 9°C 72% 30.24 in
(1024 mb)
S 8.1 mph
(S 13 kph)
- 10SM
01:53
Overcast
55°F / 13°C 48°F / 9°C 77% 30.24 in
(1024 mb)
S 5.8 mph
(S 9 kph)
0.00 in
(0.00 mm)
10SM
00:53
Overcast
55°F / 13°C 48°F / 9°C 77% 30.27 in
(1025 mb)
SSE 6.9 mph
(SSE 11 kph)
0.00 in
(0.00 mm)
10SM
Time Weather Temperature Dewpoint Humidity Pressure Winds Precip Visibility


Weather for websites

WeatherForYou.com, LLC is not responsible for any damages or problems caused by this service. Current weather conditions are obtained from the closest station including government and personal stations which may have varying degrees of accuracy. Weather forecasts are derived from the NOAA NDFD. Like all things, this site belongs to Jesus Christ... He just trusts me to maintain it. If you have any questions or comments email webmaster@weatherforyou.com

Copyright © 2014, WeatherForYou.com LLC. All rights reserved.